Regional Weather Roundup
Issued by NWS

Home | Current Version | Previous Version | Text Only | Print | Product List | Glossary On
Versions: 1 2 3 4 5 6 7 8 9 10 11 12 13 14 15 16 17 18 19 20 21 22 23 24 25 26 27 28 29 30 31 32 33 34 35 36 37 38 39 40 41 42 43 44 45 46 47 48 49
094
ASUS44 KLIX 241012
RWRLA
LOUISIANA WEATHER ROUNDUP
NATIONAL WEATHER SERVICE NEW ORLEANS LA
500 AM CDT TUE MAY 24 2016

NOTE: "FAIR" INDICATES FEW OR NO CLOUDS BELOW 12,000 FEET WITH NO
      SIGNIFICANT WEATHER AND/OR OBSTRUCTIONS TO VISIBILITY.
      SKY/WX - SKY CONDITION AND SIGNIFICANT WEATHER.
      TMP - AIR TEMPERATURE.    DP   - DEWPOINT TEMPERATURE.
      RH  - RELATIVE HUMIDITY.  PRES - PRESSURE.
      HX  - HEAT INDEX.         WCI  - WIND CHILL INDEX.

*  THESE STATIONS ARE NOT NWS OR FAA STATIONS AND ARE NOT UNDER
   NWS QUALITY CONTROL.

LAZ040-048-061>063-065-066-069-241100-
SOUTHEAST LOUISIANA

CITY           SKY/WX    TMP DP  RH WIND       PRES   REMARKS
N.O. AUDUBON     N/A     73  67  80 MISG        N/A
N.O. INTL ARPT PTCLDY    70  64  81 SE5       30.00S
N.O. LAKEFRONT CLEAR     72  65  78 SE6       30.01S
N.O. DOWNTOWN* FAIR      74  66  76 CALM      30.01S
RESERVE*       FAIR      70  66  88 SE3       30.00S
SLIDELL        CLEAR     61  61 100 CALM      30.01R
BATON ROUGE    CLEAR     66  63  90 E3        30.00R
BOOTHVILLE     CLEAR     71  67  87 E3        30.02S
BELLE CHASSE   CLEAR     63  62  97 CALM      30.00S
BOGALUSA*      FAIR      60  57  89 CALM      30.03S
GALLIANO*      MOSUNNY   64  63  97 CALM      30.00S FOG
NEW ROADS*     FAIR      67  65  94 E3        30.00R
GONZALES*      FAIR      65  65 100 CALM      29.99S
HAMMOND*       CLEAR     61  59  94 CALM      30.02R
HOUMA*           N/A     65  65 100 E3        29.99F
PORT FOURCHON* MOSUNNY   77  68  73 SE5       30.01S

$$

LAZ041-044-053-054-241100-
SOUTHWEST LOUISIANA

CITY           SKY/WX    TMP DP  RH WIND       PRES   REMARKS
LAKE CHARLES   CLEAR     71  70  96 SE6       29.95S
LAFAYETTE      PTCLDY    71  69  93 VRB3      29.97F
PATTERSON      CLEAR     70  69  97 E5        29.98F
SALT POINT       N/A     72  70  93 CALM      29.96F
NEW IBERIA     CLEAR     68  66  93 SE7       29.98F
CHENAULT AIRPK CLEAR     69  69  99 E3        29.96S FOG

$$

LAZ027-028-241100-
CENTRAL LOUISIANA

CITY           SKY/WX    TMP DP  RH WIND       PRES   REMARKS
FORT POLK      PTCLDY    70  68  94 SE6       29.96R
ALEXANDRIA INT CLEAR     68  68 100 E3        29.96R
ALEXANDRIA     CLEAR     65  63  93 CALM      29.98S FOG

$$

LAZ001-002-241100-
NORTHWEST LOUISIANA

CITY           SKY/WX    TMP DP  RH WIND       PRES   REMARKS
SHREVEPORT     PTCLDY    72  69  90 S6        29.94R
BARKSDALE AFB  PTCLDY    68  68 100 E5        29.95R
DTN SHREVEPORT PTCLDY    73  68  84 S8        29.95R

$$

LAZ014-016-241100-
NORTHEAST LOUISIANA

CITY           SKY/WX    TMP DP  RH WIND       PRES   REMARKS
MONROE         PTCLDY    66  63  90 CALM      29.99R
TALLULAH       CLEAR     65  61  87 S3        30.01R

$$





USA.gov is the U.S. government's official web portal to all federal, state and local government web resources and services.